Location: ?????????
(38.0736°N, 23.2119°E)
Time: 11:47:15
(UTC+00:00)

Resurs 01 Rocket - Pass Details

Date: 18 April 2024
Orbit: 631 x 640 km, 97.8° (Epoch: 18 May)

Event Time Altitude Azimuth Distance (km) Brightness Sun altitude
Exits shadow 19:38:52 - 227° (SW) 2,174 4.4 -27.1°
Reaches altitude 10° 19:39:31 10° 233° (SW) 2,018 4.3 -27.2°
Maximum altitude 19:42:00 15° 268° (W) 1,726 4.3 -27.5°
Drops below altitude 10° 19:44:30 10° 303° (WNW) 2,030 5.1 -27.9°
Sets 19:47:39 0° 327° (NNW) 2,947 6.2 -28.3°
